Location: Fort Worth, Tx
(32.7431°N, 97.3695°W)
Time: 04:50:10
(UTC-05:00)

Tiros 1 despin weight - All Passes

Search period start: 31 January 2023 00:00
Search period end: 10 February 2023 00:00
Orbit: 589 x 636 km, 48.2° (Epoch: 30 January)

Date Brightness Start Highest point End Pass type
(mag) Time Alt. Az. Time Alt. Az. Time Alt. Az.
31 Jan - 00:06:30 10° NNW 00:10:12 25° NNE 00:13:52 10° E night (unlit)
31 Jan - 01:47:31 10° WNW 01:51:50 57° SW 01:56:07 10° SE night (unlit)
31 Jan - 17:30:52 10° SW 17:35:25 65° SE 17:39:55 10° ENE daylight
31 Jan - 19:13:22 10° W 19:17:08 25° NNW 19:20:51 10° NNE daylight
31 Jan - 20:58:25 10° NNW 20:59:50 11° N 21:01:15 10° NNE visible
31 Jan - 22:40:31 10° NNW 22:42:52 14° NNE 22:45:12 10° NE night (unlit)
01 Feb - 00:20:58 10° NW 00:25:12 43° NNE 00:29:22 10° ESE night (unlit)
01 Feb - 02:02:45 10° WNW 02:06:26 26° SW 02:10:06 10° S night (unlit)
01 Feb - 16:05:52 10° S 16:09:04 19° SE 16:12:15 10° E daylight
01 Feb - 17:45:37 10° WSW 17:50:11 63° NW 17:54:41 10° NE daylight
01 Feb - 19:29:18 10° WNW 19:32:16 17° NNW 19:35:14 10° NNE visible
01 Feb - 21:14:08 10° NNW 21:15:14 11° N 21:16:20 10° NNE visible
01 Feb - 22:54:53 10° NNW 22:58:06 19° NNE 23:01:18 10° ENE night (unlit)
02 Feb - 00:35:36 10° NW 00:40:02 85° NE 00:44:25 10° SE night (unlit)
02 Feb - 02:19:12 10° WSW 02:20:55 12° SW 02:22:39 10° SSW night (unlit)
02 Feb - 16:19:21 10° SSW 16:23:37 39° SE 16:27:52 10° ENE daylight
02 Feb - 18:00:52 10° W 18:05:04 34° NNW 18:09:14 10° NE daylight
02 Feb - 19:45:28 10° NW 19:47:33 13° NNW 19:49:38 10° NNE visible
02 Feb - 21:28:51 10° NNW 21:30:36 12° N 21:32:21 10° NNE visible
02 Feb - 23:09:16 10° NNW 23:13:12 29° NNE 23:17:04 10° E night (unlit)
03 Feb - 00:50:30 10° WNW 00:54:43 45° SW 00:58:53 10° SSE night (unlit)
03 Feb - 14:56:22 10° SE 14:57:23 11° SE 14:58:25 10° ESE daylight
03 Feb - 16:33:40 10° SW 16:38:16 81° SE 16:42:50 10° NE daylight
03 Feb - 18:16:32 10° WNW 18:20:07 22° NNW 18:23:39 10° NNE daylight
03 Feb - 20:01:37 10° NNW 20:02:55 11° N 20:04:12 10° NNE visible
03 Feb - 21:43:15 10° NNW 21:45:55 15° NNE 21:48:33 10° NE visible
03 Feb - 23:23:47 10° NW 23:28:08 52° NE 23:32:25 10° ESE night (unlit)
04 Feb - 01:05:56 10° W 01:09:16 21° SW 01:12:34 10° S night (unlit)
04 Feb - 15:08:11 10° S 15:11:51 23° SE 15:15:30 10° ENE daylight
04 Feb - 16:48:34 10° WSW 16:53:03 52° NW 16:57:31 10° NE daylight
04 Feb - 18:32:32 10° NW 18:35:18 16° NNW 18:38:02 10° NNE daylight
04 Feb - 20:17:00 10° NNW 20:18:18 11° N 20:19:36 10° NNE visible
04 Feb - 21:57:36 10° NNW 22:01:06 22° NNE 22:04:32 10° ENE visible
04 Feb - 23:38:28 10° NW 23:42:54 78° SW 23:47:17 10° SE night (unlit)
05 Feb - 15:21:57 10° SSW 15:26:25 49° SE 15:30:50 10° ENE daylight
05 Feb - 17:03:56 10° W 17:08:00 30° NNW 17:12:01 10° NNE daylight
05 Feb - 18:48:43 10° NW 18:50:35 12° N 18:52:27 10° NNE daylight
05 Feb - 20:31:34 10° NNW 20:33:39 13° NNE 20:35:43 10° NE visible
05 Feb - 22:12:01 10° NW 22:16:08 35° NNE 22:20:11 10° E visible
05 Feb - 23:53:29 10° WNW 23:57:32 36° SW 00:01:33 10° SSE night (unlit)
06 Feb - 13:57:45 10° SSE 14:00:08 14° SE 14:02:30 10° E daylight
06 Feb - 15:36:28 10° SW 15:41:06 82° NW 15:45:42 10° NE daylight
06 Feb - 17:19:42 10° WNW 17:23:04 20° NNW 17:26:25 10° NNE daylight
06 Feb - 19:04:41 10° NNW 19:05:57 11° N 19:07:13 10° NNE daylight
06 Feb - 20:45:56 10° NNW 20:48:55 17° NNE 20:51:50 10° ENE visible
06 Feb - 22:26:34 10° NW 22:31:01 65° NE 22:35:22 10° ESE visible
07 Feb - 00:09:12 10° W 00:12:02 17° SW 00:14:51 10° S night (unlit)
07 Feb - 14:10:36 10° SSW 14:14:36 29° SE 14:18:36 10° ENE daylight
07 Feb - 15:51:30 10° WSW 15:55:55 43° NNW 16:00:18 10° NE daylight
07 Feb - 17:35:45 10° NW 17:38:16 14° NNW 17:40:47 10° NNE daylight
07 Feb - 19:19:45 10° NNW 19:21:19 12° N 19:22:53 10° NNE daylight
07 Feb - 21:00:19 10° NNW 21:04:02 25° NNE 21:07:44 10° E visible
07 Feb - 22:41:19 10° WNW 22:45:43 62° SW 22:50:03 10° SE visible
08 Feb - 14:24:37 10° SW 14:29:11 61° SE 14:33:44 10° ENE daylight
08 Feb - 16:07:00 10° W 16:10:53 26° NNW 16:14:45 10° NNE daylight
08 Feb - 17:51:53 10° NNW 17:53:35 12° N 17:55:16 10° NNE daylight
08 Feb - 19:34:14 10° NNW 19:36:38 14° NNE 19:39:01 10° NE visible
08 Feb - 21:14:45 10° NW 21:19:01 41° NNE 21:23:13 10° ESE visible
08 Feb - 22:56:28 10° WNW 23:00:18 29° SW 23:04:05 10° SSE night (unlit)
09 Feb - 12:59:44 10° S 13:02:50 18° SE 13:05:55 10° E daylight
09 Feb - 14:39:17 10° WSW 14:43:53 67° NW 14:48:29 10° NE daylight
09 Feb - 16:22:50 10° WNW 16:25:59 18° NNW 16:29:08 10° NNE daylight
09 Feb - 18:07:36 10° NNW 18:08:56 11° N 18:10:17 10° NNE daylight
09 Feb - 19:48:36 10° NNW 19:51:51 19° NNE 19:55:04 10° ENE visible
09 Feb - 21:29:20 10° NW 21:33:50 80° NE 21:38:15 10° SE visible
09 Feb - 23:12:37 10° W 23:14:45 13° SW 23:16:51 10° SSW night (unlit)
